Middletown, OH

6:53 AM EDT on June 26, 2017 (GMT -0400)
Hook Field Municipal

Weather History for KMWO - November, 2012

Change the Weather History Date:

Friday, November 30, 2012

  Actual Average (KFFO) Record (KFFO)
Temperature  
Mean Temperature 42 °F -  
Max Temperature 57 °F 45 °F 68 °F (1998)
Min Temperature 27 °F 30 °F 17 °F (1999)
Degree Days  
Heating Degree Days 23    
Moisture  
Dew Point 35 °F    
Average Humidity 82    
Maximum Humidity 100    
Minimum Humidity 50    
Precipitation  
Precipitation 0.00 in - - ()
Sea Level Pressure  
Sea Level Pressure 30.21 in    
Wind  
Wind Speed 3 mph (SW)    
Max Wind Speed 20 mph    
Max Gust Speed 23 mph    
Visibility 10 miles    
Events      
Averages and records for this station are not official NWS values.
T = Trace of Precipitation, MM = Missing Value Source: NWS Daily Summary

Daily Weather History Graph

Daily Weather History Graph

Search for Another Location

Airport or City:

Trip Planner

Search our weather history database for the weather conditions in past years. The results will help you decide how hot, cold, wet, or windy it might be!

Date:

Astronomy

Nov. 30, 2012 Rise Set
Actual Time 7:38 AM EST 5:14 PM EST
Civil Twilight 7:08 AM EST 5:44 PM EST
Nautical Twilight 6:35 AM EST 6:17 PM EST
Astronomical Twilight 6:02 AM EST 6:49 PM EST
Moon 7:08 PM EST (11/30) 9:09 AM EST (11/30)
Length of Visible Light 10h 35m
Length of Day
9h 35m
Waning Gibbous, 96% of the Moon is Illuminated
Nov 30
Waning Gibbous
Dec 6
Last Quarter
Dec 13
New
Dec 20
First Quarter
Dec 28
Full

Hourly Weather History & Observations

Time (EST) Temp. Windchill Dew Point Humidity Pressure Visibility Wind Dir Wind Speed Gust Speed Precip Events Conditions
12:15 AM 30.2 °F - 29.7 °F 98% 30.25 in 10.0 mi Calm Calm - N/A   Clear
12:35 AM 30.2 °F - 29.7 °F 98% 30.25 in 10.0 mi Calm Calm - N/A   Clear
12:55 AM 30.2 °F - 29.8 °F 99% 30.25 in 10.0 mi Calm Calm - N/A   Clear
1:15 AM 30.2 °F - 29.8 °F 99% 30.24 in 10.0 mi Calm Calm - N/A   Clear
1:35 AM 29.5 °F - 28.9 °F 98% 30.23 in 10.0 mi Calm Calm - N/A   Clear
1:55 AM 28.9 °F - 28.9 °F 100% 30.23 in 7.0 mi Calm Calm - N/A   Clear
2:15 AM 29.3 °F - 29.3 °F 100% 30.24 in 7.0 mi Calm Calm - N/A   Clear
2:35 AM 30.2 °F - 30.2 °F 100% 30.24 in 10.0 mi Calm Calm - N/A   Clear
2:55 AM 28.8 °F - 28.4 °F 99% 30.24 in 10.0 mi Calm Calm - N/A   Clear
3:15 AM 29.7 °F - 29.5 °F 99% 30.24 in 7.0 mi Calm Calm - N/A   Clear
3:35 AM 30.2 °F - 30.2 °F 100% 30.23 in 10.0 mi Calm Calm - N/A   Clear
3:55 AM 29.8 °F - 29.8 °F 100% 30.23 in 7.0 mi Calm Calm - N/A   Clear
4:15 AM 29.1 °F - 29.1 °F 100% 30.23 in 10.0 mi Calm Calm - N/A   Clear
4:35 AM 28.0 °F - 28.0 °F 100% 30.23 in 7.0 mi Calm Calm - N/A   Clear
4:55 AM 27.9 °F - 27.9 °F 100% 30.23 in 10.0 mi Calm Calm - N/A   Clear
5:15 AM 27.9 °F - 27.9 °F 100% 30.23 in 10.0 mi Calm Calm - N/A   Clear
5:35 AM 30.2 °F - 30.2 °F 100% 30.23 in 10.0 mi Calm Calm - N/A   Clear
5:55 AM 30.0 °F - 29.5 °F 98% 30.23 in 10.0 mi Calm Calm - N/A   Clear
6:15 AM 28.2 °F - 27.3 °F 96% 30.23 in 10.0 mi Calm Calm - N/A   Clear
6:35 AM 27.9 °F - 27.9 °F 100% 30.23 in 10.0 mi Calm Calm - N/A   Clear
6:55 AM 27.9 °F - 27.9 °F 100% 30.23 in 10.0 mi Calm Calm - N/A   Clear
7:15 AM 27.9 °F - 27.9 °F 100% 30.24 in 10.0 mi Calm Calm - N/A   Clear
7:35 AM 27.9 °F - 27.9 °F 100% 30.24 in 10.0 mi Calm Calm - N/A   Clear
7:55 AM 27.9 °F - 27.9 °F 100% 30.25 in 7.0 mi Calm Calm - N/A   Clear
8:15 AM 27.9 °F - 27.9 °F 100% 30.25 in 7.0 mi Calm Calm - N/A   Clear
8:35 AM 29.8 °F - 29.8 °F 100% 30.25 in 7.0 mi Calm Calm - N/A   Clear
8:55 AM 32.5 °F 29.3 °F 32.5 °F 100% 30.25 in 7.0 mi West 3.5 mph - N/A   Clear
9:15 AM 37.8 °F - 36.3 °F 95% 30.25 in 10.0 mi Calm Calm - N/A   Clear
9:35 AM 40.1 °F 38.0 °F 35.4 °F 83% 30.25 in 10.0 mi WSW 3.5 mph - N/A   Clear
9:55 AM 42.1 °F 40.2 °F 36.5 °F 81% 30.25 in 10.0 mi SW 3.5 mph - N/A   Clear
10:15 AM 47.7 °F - 36.9 °F 66% 30.24 in 10.0 mi SSW 10.4 mph - N/A   Clear
10:35 AM 47.7 °F - 36.1 °F 64% 30.24 in 10.0 mi SSW 8.1 mph - N/A   Clear
10:55 AM 47.8 °F - 36.0 °F 63% 30.24 in 10.0 mi SSW 4.6 mph - N/A   Clear
11:15 AM 52.7 °F - 39.0 °F 60% 30.23 in 10.0 mi SSW 6.9 mph - N/A   Clear
11:35 AM 52.7 °F - 37.8 °F 57% 30.22 in 10.0 mi SSW 8.1 mph - N/A   Clear
11:55 AM 54.5 °F - 38.3 °F 54% 30.20 in 10.0 mi SW 16.1 mph 19.6 mph N/A   Clear
12:15 PM 55.4 °F - 37.9 °F 52% 30.19 in 10.0 mi SW 19.6 mph 23.0 mph N/A   Scattered Clouds
12:35 PM 55.6 °F - 37.2 °F 50% 30.19 in 10.0 mi SW 15.0 mph 21.9 mph N/A   Scattered Clouds
12:55 PM 55.6 °F - 37.8 °F 51% 30.18 in 10.0 mi WSW 15.0 mph - N/A   Scattered Clouds
1:15 PM 55.6 °F - 37.9 °F 52% 30.18 in 10.0 mi SW 13.8 mph - N/A   Scattered Clouds
1:35 PM 57.4 °F - 39.6 °F 51% 30.17 in 10.0 mi SW 13.8 mph - N/A   Mostly Cloudy
1:55 PM 55.4 °F - 37.6 °F 51% 30.16 in 10.0 mi SSW 10.4 mph - N/A   Scattered Clouds
2:15 PM 56.7 °F - 38.5 °F 51% 30.17 in 10.0 mi SW 11.5 mph 16.1 mph N/A   Scattered Clouds
2:35 PM 57.6 °F - 39.4 °F 51% 30.16 in 10.0 mi SW 11.5 mph 17.3 mph N/A   Mostly Cloudy
2:55 PM 57.7 °F - 39.2 °F 50% 30.16 in 10.0 mi SSW 12.7 mph - N/A   Mostly Cloudy
3:15 PM 57.7 °F - 39.2 °F 50% 30.15 in 10.0 mi SW 11.5 mph 18.4 mph N/A   Overcast
3:35 PM 57.2 °F - 39.0 °F 51% 30.15 in 10.0 mi SW 11.5 mph - N/A   Overcast
3:55 PM 55.8 °F - 39.2 °F 54% 30.15 in 10.0 mi SSW 9.2 mph - N/A   Overcast
4:15 PM 55.4 °F - 39.6 °F 55% 30.16 in 10.0 mi SSW 11.5 mph 17.3 mph N/A   Scattered Clouds
4:35 PM 55.4 °F - 40.1 °F 56% 30.17 in 10.0 mi SSW 11.5 mph - N/A   Clear
4:55 PM 55.2 °F - 41.2 °F 59% 30.17 in 10.0 mi South 9.2 mph - N/A   Clear
5:15 PM 52.7 °F - 40.3 °F 63% 30.17 in 10.0 mi SSW 9.2 mph - N/A   Clear
5:35 PM 52.7 °F - 41.4 °F 65% 30.18 in 10.0 mi SSW 5.8 mph - N/A   Clear
5:55 PM 48.0 °F - 38.7 °F 70% 30.19 in 10.0 mi SSW 3.5 mph - N/A   Clear
6:15 PM 47.7 °F - 40.6 °F 77% 30.19 in 10.0 mi Calm Calm - N/A   Clear
6:35 PM 44.6 °F - 39.7 °F 83% 30.19 in 10.0 mi Calm Calm - N/A   Scattered Clouds
6:55 PM 39.2 °F 35.9 °F 36.5 °F 90% 30.20 in 10.0 mi SW 4.6 mph - N/A   Mostly Cloudy
7:15 PM 40.1 °F 36.9 °F 37.4 °F 90% 30.20 in 10.0 mi SW 4.6 mph - N/A   Overcast
7:35 PM 41.4 °F 39.4 °F 37.8 °F 87% 30.21 in 10.0 mi SW 3.5 mph - N/A   Scattered Clouds
7:55 PM 43.3 °F 41.7 °F 39.0 °F 85% 30.21 in 10.0 mi SW 3.5 mph - N/A   Scattered Clouds
8:15 PM 42.1 °F 40.2 °F 38.5 °F 87% 30.21 in 10.0 mi WSW 3.5 mph - N/A   Mostly Cloudy
8:35 PM 46.2 °F 44.1 °F 41.2 °F 83% 30.21 in 10.0 mi SW 4.6 mph - N/A   Mostly Cloudy
8:55 PM 42.8 °F 39.3 °F 39.2 °F 87% 30.21 in 10.0 mi SW 5.8 mph - N/A   Overcast
9:15 PM 43.5 °F 40.9 °F 40.8 °F 90% 30.22 in 10.0 mi WSW 4.6 mph - N/A   Overcast
9:35 PM 43.3 °F 41.7 °F 40.5 °F 90% 30.22 in 10.0 mi SW 3.5 mph - N/A   Overcast
9:55 PM 47.7 °F - 43.2 °F 84% 30.22 in 10.0 mi SSW 4.6 mph - N/A   Overcast
10:15 PM 44.4 °F 42.9 °F 41.5 °F 90% 30.22 in 10.0 mi SW 3.5 mph - N/A   Mostly Cloudy
10:35 PM 41.4 °F 39.4 °F 39.2 °F 92% 30.22 in 10.0 mi WSW 3.5 mph - N/A   Overcast
10:55 PM 40.1 °F 38.0 °F 39.0 °F 96% 30.23 in 10.0 mi SW 3.5 mph - N/A   Overcast
11:15 PM 41.4 °F - 39.6 °F 93% 30.22 in 10.0 mi Calm Calm - N/A   Overcast
11:35 PM 41.7 °F - 39.6 °F 92% 30.22 in 10.0 mi Calm Calm - N/A   Overcast
11:55 PM 42.3 °F - 40.3 °F 93% 30.22 in 10.0 mi Calm Calm - N/A   Mostly Cloudy